Weather Roundup
Issued by NWS Springfield, MO

Home | Current Version | Previous Version | Text Only | Print | Product List | Glossary On
Versions: 1 2 3 4 5 6 7 8 9 10 11 12 13 14 15 16 17 18 19 20 21 22 23 24 25 26 27 28 29 30 31 32 33 34 35 36 37 38 39 40 41 42 43 44 45 46 47 48 49 50
000
NZUS99 KSGF 032357
HRRSGF

HOURLY WEATHER
NATIONAL WEATHER SERVICE SPRINGFIELD MO
600 PM CST SAT DEC 03 2016

......SGF CWA......

CITY           SKY/WX    TMP DP  RH WIND       PRES   REMARKS
SPRINGFIELD    CLOUDY    41  35  79 SE13      30.16F
6HR MIN TEMP:  41; 6HR MAX TEMP:  48; 6HR PCP: TRACE;

JOPLIN         LGT RAIN  43  40  89 SE7       30.14F
6HR MIN TEMP:  43; 6HR MAX TEMP:  53; 6HR PCP:  0.01;

WEST PLAINS    LGT RAIN  38  36  92 SE6       30.22F WCI  33
6HR MIN TEMP:  38; 6HR MAX TEMP:  44; 6HR PCP:  0.05;

ROLLA          CLOUDY    41  31  67 SE8       30.21S
6HR MIN TEMP:  41; 6HR MAX TEMP:  45;

BRANSON        LGT RAIN  37  37 100 E14G23    30.17F FOG     WCI  29

......SURROUNDING SGF CWA......

CITY           SKY/WX    TMP DP  RH WIND       PRES   REMARKS
CHANUTE        CLOUDY    46  41  82 SE5       30.12F
PARSONS        LGT RAIN  47  41  80 CALM      30.13F
COFFEYVILLE    LGT RAIN  46  43  89 CALM      30.13S
EMPORIA        CLOUDY    43  37  79 N3        30.11S
HARRISON AR    LGT RAIN  38  38 100 E15       30.15F WCI  29

......KANSAS AND MISSOURI......

CITY           SKY/WX    TMP DP  RH WIND       PRES   REMARKS
KANSAS CTY INT CLOUDY    45  29  53 E8        30.13F
SEDALIA        CLOUDY    45  32  60 E7        30.19S
ST JOSEPH      CLOUDY    43  30  60 E5        30.15F
ST LOUIS       CLOUDY    42  31  64 E7        30.27S
WICHITA        DRIZZLE   43  39  86 SE6       30.09S
TOPEKA         LGT RAIN  43  35  73 CALM      30.13F
OLATHE         CLOUDY    45  31  58 SE7       30.13F

......TENNESSEE......

CITY           SKY/WX    TMP DP  RH WIND       PRES   REMARKS
MEMPHIS        NOT AVBL
NASHVILLE      LGT RAIN  43  33  68 NE6       30.26F

......ARKANSAS.......

CITY           SKY/WX    TMP DP  RH WIND       PRES   REMARKS
FAYETTEVILLE   CLOUDY    41  41 100 E5        30.10F
FT SMITH       LGT RAIN  45  42  89 E16G23    30.10F
LITTLE ROCK    LGT RAIN  43  43 100 NE13      30.16F

......OKLAHOMA.......

CITY           SKY/WX    TMP DP  RH WIND       PRES   REMARKS
TULSA          CLOUDY    46  43  89 E6        30.08F
PONCA CITY     CLOUDY    45  42  89 E6        30.08F
MCALESTER      LGT RAIN  46  43  89 VRB6      30.05S FOG
OKLAHOMA CITY  CLOUDY    44  43  96 E6        30.06R FOG

......IOWA............

CITY           SKY/WX    TMP DP  RH WIND       PRES   REMARKS
DES MOINES     NOT AVBL
QUAD CITIES    CLOUDY    33  26  75 E5        30.27F WCI  29

......ILLINOIS........

CITY           SKY/WX    TMP DP  RH WIND       PRES   REMARKS
QUINCY         NOT AVBL
CHICAGO        CLOUDY    30  24  78 CALM      30.30S



USA.gov is the U.S. government's official web portal to all federal, state and local government web resources and services.